Date,TemperatureHighF,TemperatureAvgF,TemperatureLowF,DewpointHighF,DewpointAvgF,DewpointLowF,HumidityHigh,HumidityAvg,HumidityLow,PressureMaxIn,PressureMinIn,WindSpeedMaxMPH,WindSpeedAvgMPH,GustSpeedMaxMPH,PrecipitationSumIn
2013-1-1,28.9,16.3,7.9,12.6,2.6,-4.2,61,54,46,30.24,30.09,11,2,12,0.00
2013-1-2,32.2,22.3,12.9,9.3,2.8,-2.2,59,43,32,30.33,30.15,23,4,24,0.00
2013-1-3,34.0,17.8,5.5,10.6,-1.5,-11.6,50,42,33,30.33,30.21,11,2,11,0.00
2013-1-4,38.7,21.6,10.0,13.8,2.8,-6.5,53,44,33,30.27,30.09,6,2,6,0.00
2013-1-5,37.0,22.7,10.4,13.3,4.4,-3.6,56,45,34,30.30,30.09,16,3,18,0.00
2013-1-6,39.4,21.6,6.4,11.5,2.5,-8.9,56,44,30,30.30,30.00,6,2,8,0.00
2013-1-7,47.8,32.0,22.8,16.3,12.0,8.2,54,44,27,30.09,29.91,11,3,11,0.00
2013-1-8,49.6,33.5,23.5,22.6,14.8,9.9,57,47,30,30.27,29.88,10,2,10,0.00
2013-1-9,46.2,30.4,19.0,21.9,13.6,6.6,60,50,35,30.36,30.12,10,2,10,0.00
2013-1-10,38.5,27.4,18.1,18.9,12.4,5.9,60,53,42,30.12,29.62,9,2,9,0.00
2013-1-11,34.7,23.0,11.1,23.7,10.5,-1.1,68,58,52,29.91,29.47,17,4,18,0.00
2013-1-12,20.1,11.2,4.1,5.4,-1.6,-7.8,60,56,49,30.09,29.91,10,3,12,0.00
2013-1-13,18.7,8.6,-0.9,3.2,-6.0,-12.8,56,51,43,30.18,30.03,10,2,10,0.00
2013-1-14,17.6,7.6,0.3,-1.1,-9.3,-16.4,46,45,42,30.21,30.09,10,2,10,0.00
2013-1-15,33.1,16.4,-3.1,10.0,-2.9,-19.5,52,42,34,30.18,30.09,10,2,11,0.00
2013-1-16,50.5,35.9,25.3,20.5,15.0,9.0,52,43,28,30.42,30.15,13,3,15,0.00
2013-1-17,45.5,28.7,16.7,20.5,11.5,3.2,59,49,32,30.51,30.24,9,2,10,0.00
2013-1-18,54.0,34.9,16.0,21.9,9.5,2.5,61,38,20,30.27,30.09,15,4,15,0.00
2013-1-19,51.8,37.4,24.6,15.6,7.3,-2.6,42,29,21,30.30,30.12,15,3,18,0.00
2013-1-20,44.8,29.8,17.4,16.2,7.5,0.5,52,39,28,30.33,30.18,17,3,57,0.00
2013-1-21,49.1,29.2,13.6,18.7,7.9,-1.5,56,41,26,30.27,30.09,13,2,13,0.00
2013-1-22,50.4,33.5,19.4,17.4,10.0,3.9,53,38,24,30.24,30.09,13,2,13,0.00
2013-1-23,53.1,36.2,22.1,18.7,10.1,3.6,45,34,23,30.24,30.15,8,2,10,0.00
2013-1-24,56.7,38.4,21.6,19.4,12.9,4.8,52,36,20,30.21,30.03,13,3,13,0.00
2013-1-25,51.4,37.2,25.0,24.8,18.0,10.8,61,46,32,30.27,30.12,9,2,9,0.00
2013-1-26,50.0,37.2,24.6,26.4,19.6,12.2,64,49,37,30.12,29.86,10,2,13,0.00
2013-1-27,55.8,41.5,30.0,30.4,23.5,14.9,62,49,35,29.88,29.80,14,3,17,0.00
2013-1-28,46.4,32.8,24.3,26.6,17.9,11.8,67,54,39,29.86,29.71,26,4,26,0.00
2013-1-29,33.8,27.0,17.2,18.5,11.1,-0.8,68,52,30,30.00,29.80,27,5,28,0.00
2013-1-30,37.6,25.5,10.4,15.1,6.4,-4.5,56,44,34,30.00,29.88,21,4,21,0.00
2013-1-31,40.5,31.1,22.1,20.7,13.7,7.2,60,48,39,30.21,29.91,15,4,17,0.00
2013-2-1,47.3,32.2,18.1,23.4,13.8,6.6,67,48,28,30.27,30.09,32,5,33,0.00
2013-2-2,51.3,34.0,18.9,21.2,12.3,5.2,59,42,27,30.36,30.21,15,3,17,0.00
2013-2-3,52.7,34.3,21.0,18.7,9.5,1.6,52,36,23,30.30,29.97,9,2,9,0.00
2013-2-4,54.9,34.9,21.9,18.1,8.4,2.7,47,34,20,30.09,29.91,13,3,13,0.00
2013-2-5,54.9,38.8,21.9,20.7,12.7,4.3,51,35,25,30.12,29.94,17,4,17,0.00
2013-2-6,51.8,40.0,29.3,24.1,17.7,10.0,52,41,27,30.18,29.91,23,4,23,0.00
2013-2-7,48.0,33.7,21.6,21.4,11.6,4.5,57,41,28,30.24,30.09,17,3,19,0.00
2013-2-8,48.0,31.2,15.6,16.9,8.1,-0.8,54,39,24,30.12,29.80,8,2,10,0.00
2013-2-9,41.4,30.6,21.4,22.8,13.2,2.5,68,48,38,29.86,29.68,17,5,17,0.00
2013-2-10,36.9,30.8,21.4,13.6,8.1,2.8,53,38,30,30.12,29.68,26,9,28,0.00
2013-2-11,33.3,24.5,15.6,14.5,7.7,-1.1,59,49,40,30.15,30.03,11,3,11,0.00
2013-2-12,47.7,25.5,9.5,16.2,2.2,-5.8,56,38,23,30.12,30.03,13,3,15,0.00
2013-2-13,49.1,30.9,15.1,15.8,6.2,-2.0,49,36,21,30.12,29.97,23,3,23,0.00
2013-2-14,33.1,28.3,24.1,17.6,12.8,2.8,64,52,38,30.33,30.06,24,5,26,0.00
2013-2-15,40.5,29.7,19.6,18.7,10.8,4.8,68,47,23,30.33,30.24,34,6,34,0.00
2013-2-16,56.7,33.9,16.2,19.9,8.6,0.1,60,38,17,30.27,30.03,20,4,20,0.00
2013-2-17,58.3,38.1,21.9,17.4,8.8,0.9,45,31,17,30.03,29.68,35,7,35,0.00
2013-2-18,43.0,33.0,21.9,12.6,5.2,-0.8,43,31,21,30.15,29.86,26,8,26,0.00
2013-2-19,39.9,28.4,16.7,12.6,6.0,-1.8,47,39,29,30.15,29.91,10,3,11,0.00
2013-2-20,38.8,27.0,20.7,18.3,11.8,5.9,64,53,37,29.94,29.74,15,5,15,0.00
2013-2-21,35.1,25.2,18.0,16.7,11.9,6.4,67,57,43,29.97,29.83,11,3,13,0.04
2013-2-22,37.0,23.6,11.7,19.2,9.7,0.9,71,55,43,30.03,29.91,15,3,16,0.04
2013-2-23,41.2,26.7,11.3,23.0,10.7,-0.6,72,52,34,29.91,29.74,12,2,12,0.00
2013-2-24,32.0,28.0,15.8,24.3,19.3,4.5,82,70,56,30.18,29.83,26,6,28,0.00
2013-2-25,33.1,18.0,3.4,17.2,5.2,-7.4,64,57,49,30.18,29.91,8,2,8,0.00
2013-2-26,40.8,27.8,12.4,21.6,12.0,0.3,70,52,34,30.18,29.86,26,7,28,0.05
2013-2-27,37.9,27.7,16.5,13.8,7.9,0.5,52,43,35,30.30,30.15,20,5,20,0.00
2013-2-28,44.8,28.3,10.9,17.6,8.1,-2.4,57,43,28,30.27,30.21,16,4,16,0.00
2013-3-1,45.5,34.7,24.4,21.0,15.8,7.7,59,46,34,30.36,30.24,17,4,19,0.00
2013-3-2,54.1,38.9,24.4,26.8,21.2,13.6,65,51,30,30.33,30.09,12,3,13,0.00
2013-3-3,61.0,45.7,33.3,30.9,23.5,18.1,66,45,24,30.12,29.77,23,5,26,0.00
2013-3-4,45.5,31.9,21.9,21.4,12.5,1.6,62,45,32,30.24,29.80,33,7,33,0.00
2013-3-5,40.5,27.2,13.8,17.4,9.7,0.3,56,48,34,30.30,30.18,17,4,18,0.00
2013-3-6,52.3,35.3,21.0,26.1,18.2,9.3,65,51,34,30.18,29.94,12,3,14,0.00
2013-3-7,62.2,43.6,28.4,28.9,21.9,16.3,67,45,24,30.09,29.94,21,4,22,0.00
2013-3-8,50.2,39.8,32.2,27.1,22.9,17.6,59,51,39,30.09,29.83,10,2,10,0.00
2013-3-9,38.7,34.9,30.6,29.8,19.9,9.7,83,56,38,30.15,29.74,38,8,38,0.04
2013-3-10,50.0,38.7,29.7,15.8,11.8,7.7,50,34,21,30.15,30.09,40,9,40,0.12
2013-3-11,56.3,39.4,30.0,25.3,18.7,14.5,73,46,22,30.24,29.97,30,6,30,0.00
2013-3-12,39.6,33.3,27.3,25.0,20.7,16.9,74,60,49,30.36,30.21,20,5,20,0.05
2013-3-13,63.7,43.6,25.2,32.7,24.2,16.9,74,50,26,30.33,30.21,17,4,17,0.00
2013-3-14,68.9,52.0,37.2,32.4,25.9,22.1,60,39,20,30.39,30.21,15,3,19,0.00
2013-3-15,74.8,56.8,39.9,31.5,22.7,15.3,52,31,13,30.21,29.97,27,6,27,0.00
2013-3-16,57.9,49.7,37.4,29.1,24.0,19.8,51,37,25,30.15,29.91,20,4,20,0.00
2013-3-17,57.9,41.0,28.6,29.1,18.3,1.2,64,42,21,29.97,29.68,31,6,31,0.00
2013-3-18,51.3,40.2,25.3,13.1,5.3,-5.3,29,23,19,30.03,29.91,32,8,33,0.00
2013-3-19,53.8,41.8,28.0,11.7,7.4,1.0,39,25,18,30.39,29.97,29,8,29,0.00
2013-3-20,49.1,33.9,19.6,17.4,11.2,3.4,54,39,28,30.36,29.83,8,2,8,0.00
2013-3-21,53.2,39.5,29.7,27.3,14.4,2.7,53,38,19,29.91,29.71,27,6,28,0.00
2013-3-22,46.0,33.4,26.1,25.5,13.9,1.9,75,47,27,30.00,29.83,20,5,24,0.00
2013-3-23,30.6,23.2,11.1,19.4,10.8,-3.5,77,60,41,30.21,29.97,24,7,26,0.00
2013-3-24,38.1,19.9,4.3,16.0,2.6,-9.8,58,47,34,30.27,30.09,23,4,23,0.00
2013-3-25,36.7,25.3,16.9,15.1,8.9,4.6,60,50,38,30.33,30.21,18,5,18,0.08
2013-3-26,48.0,31.3,13.6,23.4,12.9,1.4,59,47,32,30.24,30.03,8,2,9,0.00
2013-3-27,54.7,42.3,34.0,32.5,27.6,23.0,73,57,36,30.18,30.09,16,4,16,0.00
2013-3-28,65.8,46.1,30.0,35.6,26.5,21.9,74,50,25,30.21,30.12,18,3,18,0.00
2013-3-29,67.6,51.3,35.4,37.8,25.8,19.9,68,41,20,30.21,30.12,25,4,25,0.00
2013-3-30,68.4,46.9,33.6,35.8,27.3,19.2,71,49,20,30.30,30.12,30,5,32,0.00
2013-3-31,68.2,47.7,28.9,37.0,25.2,15.4,77,48,17,30.30,30.03,13,3,13,0.00
2013-4-1,56.5,43.7,32.5,28.8,22.6,16.0,52,43,33,30.24,30.12,11,3,13,0.00
2013-4-2,42.8,40.1,37.0,33.8,29.1,24.1,78,65,50,30.21,30.15,13,4,13,0.04
2013-4-3,64.0,48.6,37.8,39.2,32.2,26.1,82,57,29,30.24,30.09,22,4,23,0.00
2013-4-4,70.3,54.4,37.2,34.7,27.1,22.3,59,37,20,30.27,30.09,15,4,18,0.00
2013-4-5,72.3,55.3,43.9,34.2,27.3,20.5,52,36,16,30.12,29.86,31,5,31,0.00
2013-4-6,67.8,56.6,44.2,27.5,20.9,14.9,32,25,18,30.06,29.97,26,6,27,0.00
2013-4-7,66.9,52.7,39.4,35.8,28.3,21.6,69,41,23,30.03,29.83,23,4,26,0.00
2013-4-8,69.1,45.8,27.3,32.0,25.5,14.9,66,47,23,29.94,29.62,36,9,41,0.00
2013-4-9,29.1,21.6,15.3,18.1,6.2,-1.3,68,51,43,30.24,29.94,34,11,34,0.00
2013-4-10,35.4,23.1,12.0,17.1,7.4,-2.6,61,51,43,30.21,29.97,19,5,19,0.04
2013-4-11,56.8,38.4,20.5,27.9,19.6,9.1,64,49,27,30.00,29.86,30,5,30,0.00
2013-4-12,53.8,43.2,32.4,44.8,26.3,20.8,87,53,36,30.09,29.97,24,6,28,0.00
2013-4-13,63.5,48.0,32.2,53.8,28.9,22.1,87,51,25,30.06,29.62,34,5,34,0.12
2013-4-14,47.7,43.6,37.6,33.8,9.5,3.9,69,25,19,29.86,29.68,40,13,40,0.04
2013-4-15,37.6,31.1,26.4,24.3,18.1,8.1,73,59,29,30.15,29.86,18,4,18,0.00
2013-4-16,35.8,30.3,25.2,26.2,22.6,17.6,81,73,65,30.12,29.97,15,4,19,0.00
2013-4-17,35.1,29.2,22.6,28.9,20.5,10.0,83,70,53,30.24,30.03,16,3,17,0.04
2013-4-18,42.1,29.5,12.4,18.3,10.7,2.1,68,47,29,30.21,30.15,25,2,25,0.00
2013-4-19,53.8,37.6,20.3,23.7,16.4,7.2,57,43,27,30.21,30.03,15,3,17,0.04
2013-4-20,59.4,45.3,33.1,30.7,26.0,21.4,66,48,28,30.15,30.00,9,2,9,0.04
2013-4-21,64.4,47.9,33.3,37.9,27.9,21.4,75,49,24,30.15,30.09,22,3,22,0.00
2013-4-22,45.1,34.8,26.4,35.2,24.8,19.2,77,67,49,30.39,30.00,29,6,31,0.00
2013-4-23,38.8,30.8,21.6,19.9,15.9,10.6,76,55,40,30.33,30.21,13,4,13,0.08
2013-4-24,57.6,39.9,24.8,27.1,18.5,12.6,63,44,25,30.30,30.18,16,3,16,0.00
2013-4-25,65.7,47.0,30.0,28.8,20.8,15.3,56,38,19,30.24,30.03,15,3,15,0.00
2013-4-26,70.9,54.2,36.5,23.9,21.2,15.6,52,31,15,30.30,30.09,15,3,17,0.00
2013-4-27,77.2,57.7,35.1,30.6,21.2,13.8,55,28,13,30.30,30.12,20,5,22,0.00
2013-4-28,79.9,63.6,41.7,36.1,24.7,17.2,42,25,13,30.15,29.97,23,6,23,0.00
2013-4-29,81.9,66.5,50.2,36.5,27.9,17.4,49,26,14,30.09,29.80,18,5,23,0.00
2013-4-30,59.5,50.8,35.4,36.3,29.4,21.2,79,46,24,30.15,29.80,23,6,25,0.46
2013-5-1,36.5,32.8,27.7,31.5,25.5,19.8,87,75,61,30.65,30.15,15,3,17,0.16
2013-5-2,49.5,35.4,19.9,27.0,18.9,11.1,73,53,32,30.68,30.45,9,2,9,0.34
2013-5-3,60.3,44.8,26.8,31.5,23.4,15.6,66,45,26,30.48,30.18,8,2,11,0.00
2013-5-4,62.6,50.4,39.0,32.0,26.5,22.1,63,41,25,30.30,30.18,11,3,12,0.00
2013-5-5,64.4,50.3,36.7,30.4,23.1,17.8,51,35,24,30.33,30.18,17,4,20,0.00
2013-5-6,68.0,55.3,40.6,32.5,27.7,24.1,53,36,23,30.18,30.03,11,3,11,0.00
2013-5-7,70.7,57.0,42.6,44.8,34.2,28.6,67,44,24,30.12,30.03,17,4,17,0.00
2013-5-8,73.6,54.9,45.9,43.7,39.6,30.6,80,59,26,30.21,30.06,23,4,23,0.33
2013-5-9,62.4,55.2,47.7,46.6,40.8,36.1,80,60,42,30.30,30.18,21,4,29,0.21
2013-5-10,66.7,60.3,53.6,40.5,36.7,32.2,52,42,33,30.42,30.24,18,3,24,0.04
2013-5-11,65.7,61.7,57.2,42.6,37.7,31.5,46,41,36,30.48,30.33,16,4,16,0.00
2013-5-12,69.8,62.1,56.5,44.6,37.9,32.5,45,41,36,30.33,30.21,19,4,19,0.00
2013-5-13,87.8,71.4,60.4,42.1,36.2,28.9,45,30,14,30.24,30.18,13,3,15,0.00
2013-5-14,86.4,69.1,52.5,45.9,37.0,30.4,58,34,16,30.18,30.06,22,3,23,0.00
2013-5-15,85.3,67.1,53.1,48.0,39.5,33.3,65,40,19,30.15,30.03,23,4,24,0.00
2013-5-16,81.5,67.3,52.7,52.5,41.9,28.2,74,45,17,30.09,29.94,18,4,19,0.04
2013-5-17,86.9,70.3,53.6,48.7,38.0,27.3,60,34,13,30.09,29.91,17,3,17,0.00
2013-5-18,78.8,64.9,51.3,40.5,31.6,25.5,47,30,18,30.06,29.91,22,5,23,0.00
2013-5-19,71.6,62.8,54.5,36.0,28.6,23.9,40,28,19,30.03,29.91,22,6,24,0.00
2013-5-20,64.8,57.7,51.1,44.2,34.9,27.3,70,44,28,30.15,29.97,38,7,38,0.00
2013-5-21,70.3,59.5,45.5,35.4,27.7,23.4,51,31,19,30.15,30.00,25,6,26,0.00
2013-5-22,75.7,59.9,43.5,41.2,33.7,27.0,60,39,22,30.21,30.03,15,4,18,0.00
2013-5-23,69.8,58.4,51.1,48.9,43.2,39.6,71,58,39,30.27,30.09,23,6,23,0.00
2013-5-24,82.9,66.4,51.4,49.6,42.7,27.9,79,49,14,30.15,30.03,12,3,12,0.00
2013-5-25,86.4,70.9,53.6,53.4,43.0,32.5,74,42,16,30.15,30.03,14,4,19,0.00
2013-5-26,85.6,69.8,56.1,45.5,36.4,25.7,55,32,16,30.09,30.00,26,4,26,0.00
2013-5-27,84.7,68.2,49.3,39.9,30.9,23.2,53,28,13,30.03,29.91,18,3,19,0.00
2013-5-28,79.7,66.2,53.1,42.4,36.3,30.6,49,34,18,30.00,29.74,45,5,46,0.00
2013-5-29,64.4,58.1,49.6,48.7,40.3,26.6,79,54,28,29.88,29.80,17,4,17,0.58
2013-5-30,73.2,60.7,45.9,37.8,28.0,19.4,64,32,16,30.03,29.80,35,7,35,0.00
2013-5-31,72.1,63.2,54.1,30.2,20.5,14.0,35,20,14,30.18,29.97,35,11,35,0.00
2013-6-1,71.2,61.9,52.2,32.5,29.8,26.6,45,30,22,30.33,30.15,26,7,26,0.00
2013-6-2,80.8,63.1,44.4,39.9,34.7,30.0,58,37,20,30.33,29.97,14,3,14,0.00
2013-6-3,86.5,69.8,49.5,45.3,33.1,18.5,58,30,13,30.09,29.91,20,4,29,0.00
2013-6-4,76.3,64.6,54.7,43.5,38.6,17.8,53,39,15,30.33,30.09,23,6,27,0.00
2013-6-5,66.0,57.6,51.3,42.8,38.7,34.2,60,50,41,30.36,30.24,13,4,13,0.00
2013-6-6,79.3,63.9,45.5,47.1,37.8,30.4,74,43,17,30.27,30.15,10,2,10,0.00
2013-6-7,80.1,68.6,55.6,46.2,39.2,34.9,59,36,21,30.27,29.97,15,3,15,0.00
2013-6-8,78.6,67.0,55.9,45.5,38.2,33.4,58,37,21,30.18,29.91,27,6,31,0.00
2013-6-9,87.6,70.1,50.2,45.7,39.3,34.2,68,37,16,30.21,30.09,16,3,16,0.00
2013-6-10,92.7,74.1,54.0,49.5,39.9,30.2,59,33,12,30.12,30.03,29,4,29,0.00
2013-6-11,96.4,78.5,56.1,46.0,35.4,21.2,57,26,11,30.18,29.97,26,5,26,0.00
2013-6-12,91.6,77.0,59.4,47.8,32.6,18.5,46,21,12,30.30,30.15,23,5,23,0.00
2013-6-13,81.9,69.5,60.8,51.8,47.9,42.6,60,47,32,30.33,30.06,13,3,13,0.00
2013-6-14,93.0,75.4,60.3,48.4,40.9,31.3,59,33,12,30.18,30.06,19,4,25,0.00
2013-6-15,82.2,70.3,55.8,54.0,43.4,38.3,70,39,24,30.24,30.09,15,4,18,0.46
2013-6-16,80.8,69.3,57.9,59.4,45.8,31.5,80,49,20,30.27,30.18,32,4,32,0.00
2013-6-17,77.4,66.3,54.3,52.0,45.7,36.1,72,49,30,30.30,30.18,13,3,16,0.00
2013-6-18,82.6,69.6,59.4,51.1,46.0,36.3,64,45,21,30.30,30.06,23,4,23,0.00
2013-6-19,91.8,73.3,55.4,52.5,43.4,30.4,71,40,12,30.18,29.86,15,4,19,0.00
2013-6-20,88.5,75.0,60.4,49.5,37.3,29.3,54,28,13,30.09,29.94,21,4,21,0.00
2013-6-21,94.3,77.7,61.9,55.4,42.3,30.4,61,32,11,30.15,29.97,23,4,24,0.00
2013-6-22,86.2,72.5,59.0,50.5,43.9,37.0,54,38,18,30.15,29.94,26,4,26,0.00
2013-6-23,84.0,70.0,54.9,46.8,42.1,36.3,66,39,22,30.21,30.03,17,4,17,0.00
2013-6-24,90.7,75.7,61.2,49.5,39.2,24.4,58,30,12,30.09,29.94,26,6,27,0.00
2013-6-25,89.2,78.2,63.1,41.2,34.3,24.4,37,21,13,30.18,29.97,18,4,21,0.00
2013-6-26,94.5,78.7,56.8,45.3,40.3,30.4,56,29,11,30.24,30.15,13,3,15,0.00
2013-6-27,96.8,81.5,63.1,45.5,38.8,30.9,46,24,11,30.42,30.21,17,4,17,0.00
2013-6-28,93.6,77.6,65.7,57.6,48.2,41.9,70,39,18,30.42,30.27,36,4,39,0.50
2013-6-29,84.6,73.7,63.3,57.6,53.0,47.3,73,51,31,30.42,30.27,13,3,15,0.00
2013-6-30,81.9,72.3,64.8,57.0,50.9,46.6,62,48,32,30.36,30.27,12,3,12,0.00
2013-7-1,79.9,69.1,59.9,53.4,50.2,46.6,71,52,33,30.42,30.33,17,3,18,0.00
2013-7-2,83.1,70.6,58.5,54.0,48.3,42.8,74,48,26,30.42,30.27,15,3,17,0.00
2013-7-3,86.7,72.1,57.4,50.4,44.5,37.9,68,40,20,30.33,30.09,14,2,14,0.00
2013-7-4,92.1,76.6,59.4,54.1,43.7,38.7,64,35,17,30.15,30.06,13,3,17,0.00
2013-7-5,89.2,73.7,66.6,55.9,50.2,40.8,63,45,23,30.12,30.03,25,3,25,0.00
2013-7-6,91.8,77.2,64.2,55.2,46.7,39.6,71,37,18,30.18,30.03,17,3,17,0.00
2013-7-7,88.7,75.5,65.8,59.7,51.1,42.1,61,43,28,30.24,30.12,20,4,29,0.00
2013-7-8,91.8,76.5,64.0,57.6,48.8,37.6,69,42,18,30.24,30.18,28,4,31,0.00
2013-7-9,94.3,78.1,61.5,51.8,42.6,34.0,60,32,14,30.36,30.21,15,3,15,0.00
2013-7-10,87.3,75.1,62.2,55.4,49.1,41.2,60,41,28,30.39,30.15,21,3,21,0.00
2013-7-11,97.5,80.0,62.6,55.2,47.8,37.9,65,36,13,30.27,30.06,27,6,27,0.00
2013-7-12,90.9,75.6,68.0,60.6,51.1,38.7,69,45,22,30.24,30.09,20,4,20,0.03
2013-7-13,90.7,74.6,65.8,63.0,57.6,48.9,80,59,27,30.33,30.18,23,3,25,0.17
2013-7-14,80.4,71.1,61.3,61.0,57.3,53.8,83,63,42,30.39,30.21,16,3,17,0.00
2013-7-15,82.9,73.0,67.1,66.0,58.7,44.1,87,64,40,30.36,30.21,24,5,24,0.13
2013-7-16,86.0,71.6,58.1,51.6,46.4,39.6,67,43,23,30.36,30.27,17,5,17,0.00
2013-7-17,87.1,74.3,61.5,58.1,51.2,43.5,78,49,24,30.36,30.21,13,3,14,0.00
2013-7-18,93.2,73.2,64.8,59.9,52.4,41.9,78,51,20,30.33,30.21,25,5,25,0.20
2013-7-19,82.2,72.4,63.5,59.0,55.8,52.0,80,58,40,30.33,30.21,14,4,14,0.00
2013-7-20,83.7,71.1,61.0,58.5,52.7,42.6,79,54,34,30.27,30.12,33,3,33,0.00
2013-7-21,83.3,71.1,59.2,59.4,53.7,47.8,73,56,36,30.18,30.06,13,3,13,0.00
2013-7-22,90.5,76.8,59.7,60.4,51.5,44.6,68,44,22,30.18,30.06,12,3,13,0.00
2013-7-23,86.5,74.8,59.9,56.8,50.8,43.3,66,44,29,30.33,30.09,11,3,11,0.00
2013-7-24,82.4,72.6,64.2,61.0,51.8,37.9,71,50,21,30.39,30.15,20,4,25,0.00
2013-7-25,77.7,68.2,61.5,60.6,53.6,49.3,78,60,43,30.39,30.21,16,3,16,0.04
2013-7-26,86.4,72.0,60.6,54.7,48.4,36.3,69,47,20,30.39,30.27,31,4,31,0.00
2013-7-27,76.8,66.3,57.0,55.9,50.7,44.1,72,58,42,30.33,30.21,12,3,12,0.00
2013-7-28,73.8,65.1,61.3,61.7,57.1,53.1,83,76,56,30.24,30.09,13,2,15,0.05
2013-7-29,76.3,66.9,61.9,63.5,55.3,43.0,90,69,32,30.30,30.09,19,3,19,0.04
2013-7-30,87.3,72.2,60.1,53.6,48.9,40.5,70,47,22,30.36,30.27,15,2,18,0.13
2013-7-31,89.1,73.2,58.8,57.2,50.0,43.0,73,47,21,30.42,30.27,13,3,15,0.00
2013-8-1,85.5,71.8,59.9,58.3,51.2,44.4,75,51,27,30.36,30.12,17,3,18,0.00
2013-8-2,91.4,74.5,59.7,58.3,50.4,39.0,72,47,18,30.24,30.09,13,3,15,0.00
2013-8-3,90.3,71.4,65.3,64.0,57.1,48.6,77,63,28,30.39,30.21,32,5,32,0.29
2013-8-4,81.1,70.4,57.7,60.4,52.1,45.3,78,55,32,30.33,30.21,13,3,15,0.00
2013-8-5,86.7,72.4,59.4,54.7,47.9,39.6,70,44,22,30.24,30.15,16,3,16,0.00
2013-8-6,87.8,72.1,58.1,55.8,46.6,36.3,70,44,19,30.21,30.12,23,4,23,0.08
2013-8-7,74.1,67.7,61.7,55.8,51.2,45.1,73,56,42,30.27,30.15,20,4,22,0.00
2013-8-8,76.3,67.1,61.7,59.5,53.8,44.8,83,64,43,30.33,30.18,13,3,16,0.00
2013-8-9,80.8,67.0,55.0,52.0,46.5,41.7,70,50,30,30.33,30.27,17,4,19,0.00
2013-8-10,84.9,70.0,55.2,52.9,46.2,38.1,74,47,21,30.36,30.21,20,4,20,0.00
2013-8-11,81.5,71.0,63.7,51.4,44.7,37.0,59,40,23,30.33,30.27,19,3,19,0.00
2013-8-12,82.0,68.5,56.8,55.6,47.4,39.4,71,49,23,30.39,30.24,15,3,18,0.00
2013-8-13,78.3,67.5,55.9,49.8,45.2,39.0,70,47,27,30.39,30.27,19,4,19,0.00
2013-8-14,82.0,68.1,56.7,53.4,46.0,37.9,73,48,23,30.36,30.21,17,3,17,0.00
2013-8-15,84.6,68.1,52.3,51.8,45.4,41.4,71,47,22,30.30,30.21,10,2,12,0.00
2013-8-16,88.3,71.8,55.4,51.1,45.6,39.0,69,43,18,30.33,30.21,14,3,14,0.00
2013-8-17,90.5,74.4,60.3,61.0,49.7,38.3,74,47,19,30.33,30.15,13,3,13,0.00
2013-8-18,88.0,73.8,60.6,60.6,48.3,37.4,71,45,18,30.33,30.21,19,3,26,0.00
2013-8-19,92.8,75.4,57.7,53.4,44.8,34.9,67,39,14,30.27,30.15,15,3,17,0.00
2013-8-20,95.7,76.8,58.6,48.9,41.1,30.9,55,32,11,30.21,30.12,12,3,14,0.00
2013-8-21,88.3,77.8,69.1,49.6,43.4,39.6,45,31,20,30.30,30.18,20,4,21,0.00
2013-8-22,85.6,73.2,63.0,56.8,51.5,46.0,65,47,34,30.36,30.24,14,3,14,0.00
2013-8-23,87.3,73.5,62.6,59.4,51.6,44.1,73,50,28,30.33,30.09,17,3,20,0.00
2013-8-24,88.0,73.2,59.2,54.0,46.9,40.1,71,42,22,30.24,30.15,20,4,22,0.00
2013-8-25,90.0,75.0,59.5,52.2,46.5,38.8,69,40,18,30.30,30.21,15,3,17,0.00
2013-8-26,89.6,75.6,61.9,56.1,50.1,44.8,70,44,22,30.30,30.21,13,3,13,0.00
2013-8-27,92.1,78.1,63.9,57.2,49.9,43.2,67,40,20,30.30,30.18,15,3,19,0.00
2013-8-28,90.1,77.7,63.0,53.2,45.8,35.8,62,35,18,30.30,30.21,11,2,11,0.00
2013-8-29,93.9,77.6,61.0,50.9,43.9,39.0,57,33,17,30.33,30.21,21,3,24,0.00
2013-8-30,88.0,75.6,62.4,53.6,46.2,38.8,58,37,19,30.33,30.21,17,3,20,0.00
2013-8-31,85.5,74.8,64.8,52.0,46.0,38.8,57,38,20,30.30,30.21,13,3,16,0.00
2013-9-1,81.1,71.7,65.7,54.1,50.3,45.7,64,47,37,30.36,30.24,17,4,18,0.00
2013-9-2,88.3,72.8,60.1,57.2,51.7,43.9,75,51,22,30.30,30.15,14,3,14,0.00
2013-9-3,91.8,75.4,61.7,56.8,49.2,42.1,65,43,20,30.30,30.21,15,3,19,0.08
2013-9-4,90.7,74.9,61.7,57.4,50.2,43.9,72,46,22,30.33,30.24,13,2,13,0.00
2013-9-5,88.3,76.0,66.0,56.8,50.9,44.4,66,44,22,30.33,30.24,11,2,13,0.00
2013-9-6,92.8,76.8,66.4,56.3,47.4,39.9,64,39,18,30.33,30.21,18,3,23,0.00
2013-9-7,89.6,75.7,62.4,53.8,45.6,39.4,64,37,19,30.27,30.15,12,2,12,0.00
2013-9-8,88.5,73.1,58.8,50.9,44.5,39.7,62,38,20,30.21,30.03,10,2,11,0.00
2013-9-9,84.6,69.0,61.7,56.8,50.5,44.2,82,54,29,30.21,30.06,21,5,26,0.33
2013-9-10,67.5,63.0,60.1,57.9,56.2,54.5,87,79,66,30.33,30.18,8,2,10,0.49
2013-9-11,66.2,63.1,61.2,62.4,59.7,57.6,91,89,85,30.36,30.30,12,2,15,1.21
2013-9-12,64.8,62.0,60.1,61.7,59.1,57.6,92,90,88,30.42,30.33,15,4,15,1.04
2013-9-13,73.2,65.4,60.8,65.5,59.9,57.9,90,83,67,30.33,30.06,9,2,10,0.24
2013-9-14,74.8,65.9,58.5,60.1,55.1,48.4,84,70,41,30.18,30.06,13,3,13,0.25
2013-9-15,61.7,59.2,56.8,56.8,55.2,53.2,89,87,80,30.39,30.15,11,3,12,0.95
2013-9-16,69.6,61.6,55.9,60.6,55.3,53.1,91,81,63,30.36,30.18,10,3,11,0.05
2013-9-17,81.0,65.4,51.8,60.6,50.8,44.1,89,63,29,30.21,30.00,15,2,15,0.00
2013-9-18,79.5,68.6,58.8,50.9,45.8,39.0,73,46,27,30.09,29.97,23,4,27,0.00
2013-9-19,66.6,60.1,52.9,48.7,41.3,32.7,70,51,36,30.30,30.06,17,3,17,0.08
2013-9-20,70.0,58.4,48.2,46.0,41.7,35.8,73,56,33,30.30,30.15,13,2,13,0.00
2013-9-21,78.1,61.5,46.9,50.0,44.6,39.4,80,57,27,30.21,29.97,15,2,15,0.00
2013-9-22,75.9,62.2,52.5,50.9,45.9,41.0,77,58,31,29.97,29.80,22,3,23,0.04
2013-9-23,68.5,60.6,51.1,50.7,35.9,26.1,80,44,23,30.18,29.77,33,8,35,0.29
2013-9-24,70.7,56.6,43.3,44.2,37.9,31.3,73,52,30,30.24,30.03,13,3,13,0.00
2013-9-25,73.8,59.3,46.8,46.9,42.4,37.6,75,55,35,30.06,29.68,10,3,10,0.00
2013-9-26,67.1,57.2,46.4,44.8,42.1,37.6,76,59,41,29.97,29.77,15,3,15,0.00
2013-9-27,56.1,50.4,44.1,47.7,43.7,39.4,84,78,65,30.12,29.91,9,3,11,0.13
2013-9-28,63.0,49.7,37.2,43.2,37.4,32.7,88,66,35,30.24,30.09,12,3,12,0.00
2013-9-29,70.2,55.2,40.5,44.8,36.0,25.9,79,52,25,30.24,30.03,9,3,10,0.00
2013-9-30,71.6,59.8,49.3,45.5,40.2,34.7,66,49,35,30.09,29.94,8,2,8,0.00
2013-10-1,69.8,58.4,48.0,41.4,38.3,33.4,66,48,32,30.24,30.03,18,4,18,0.00
2013-10-2,73.9,58.5,44.6,48.4,39.1,35.4,78,51,26,30.12,30.03,15,3,15,0.00
2013-10-3,63.3,52.9,43.5,43.9,38.9,32.7,83,60,45,30.12,29.91,18,3,18,0.25
2013-10-4,47.5,41.0,36.1,43.0,27.3,17.2,86,61,39,30.30,29.97,27,9,30,0.29
2013-10-5,60.6,48.5,36.0,27.0,16.9,9.7,51,30,17,30.27,30.21,25,6,27,0.00
2013-10-6,66.4,50.7,36.0,34.7,27.8,16.0,60,42,26,30.33,30.21,13,3,13,0.00
2013-10-7,69.8,53.0,37.0,41.0,35.2,27.9,74,53,29,30.30,30.06,11,2,11,0.00
2013-10-8,73.8,57.0,46.0,43.9,36.7,30.6,72,50,22,30.06,29.91,13,3,15,0.00
2013-10-9,63.0,54.2,44.2,41.4,36.2,30.4,69,51,38,30.12,29.97,11,3,11,0.00
2013-10-10,57.4,51.2,45.5,45.3,40.3,36.5,76,66,52,30.09,29.68,14,2,15,0.04
2013-10-11,61.3,54.0,44.1,39.0,30.7,25.5,67,43,26,30.21,29.68,20,5,27,0.00
2013-10-12,55.2,48.1,42.4,38.7,35.5,30.0,75,62,48,30.30,30.15,9,2,9,0.00
2013-10-13,59.7,48.7,39.2,41.7,36.6,31.5,76,64,45,30.27,29.97,8,2,9,0.00
2013-10-14,50.9,47.1,40.8,44.2,32.9,19.6,81,59,41,30.24,29.94,33,8,33,0.04
2013-10-15,48.7,41.9,36.7,24.1,20.3,16.0,52,42,37,30.36,30.24,25,5,25,0.00
2013-10-16,54.1,41.0,30.2,29.8,23.9,19.2,68,51,31,30.30,30.09,10,2,10,0.00
2013-10-17,49.5,41.4,34.5,31.1,27.3,21.4,73,57,44,30.24,30.12,12,3,12,0.00
2013-10-18,47.1,38.6,33.6,31.6,26.0,19.6,80,62,39,30.30,30.18,24,4,24,0.29
2013-10-19,59.4,43.0,29.7,32.5,26.7,20.8,72,55,30,30.18,30.03,8,2,9,0.00
2013-10-20,45.7,40.3,35.8,36.5,31.1,24.8,82,70,57,30.24,30.00,15,3,17,0.12
2013-10-21,58.1,45.2,30.2,41.2,28.3,22.6,86,57,26,30.27,30.15,21,3,21,0.00
2013-10-22,63.0,49.9,36.7,34.9,29.7,25.3,67,47,30,30.30,30.21,17,3,17,0.00
2013-10-23,63.1,47.8,34.9,36.9,30.2,25.0,72,52,32,30.33,30.18,13,3,15,0.00
2013-10-24,53.4,43.1,34.9,37.0,31.5,26.4,74,64,49,30.36,30.27,9,2,10,0.00
2013-10-25,65.8,47.7,33.1,41.4,30.6,25.7,79,55,26,30.33,30.18,11,2,11,0.00
2013-10-26,61.2,47.0,35.6,36.1,29.3,23.9,66,51,34,30.45,30.24,13,3,14,0.00
2013-10-27,68.7,50.0,33.3,40.5,28.2,23.5,75,48,20,30.24,29.97,13,2,13,0.00
2013-10-28,53.1,39.6,34.5,29.8,28.1,23.5,81,65,36,30.21,30.00,16,4,16,0.00
2013-10-29,42.3,37.7,34.5,34.0,31.3,29.5,86,78,66,30.15,30.03,9,3,10,0.00
2013-10-30,47.8,39.3,34.5,39.2,32.4,27.7,86,76,61,30.03,29.91,13,2,13,0.00
2013-10-31,54.5,41.2,28.9,35.6,25.6,19.0,83,58,27,30.00,29.91,28,4,28,0.00
2013-11-1,54.1,45.4,34.5,27.0,21.4,16.0,55,39,25,30.30,29.97,29,7,30,0.00
2013-11-2,54.0,38.7,27.0,28.4,22.0,15.4,67,52,35,30.33,29.88,10,2,12,0.00
2013-11-3,63.5,46.2,34.0,31.8,23.3,18.1,61,43,18,29.94,29.71,27,6,29,0.00
2013-11-4,44.1,37.7,33.3,25.0,18.6,14.5,67,47,32,30.12,29.94,25,6,25,0.00
2013-11-5,45.3,36.3,25.2,21.0,10.2,0.5,56,35,20,30.21,30.00,25,8,26,0.00
2013-11-6,51.3,34.1,22.1,21.7,12.5,5.4,55,42,24,30.39,30.15,25,4,25,0.00
2013-11-7,54.3,38.0,25.2,24.3,18.1,11.5,58,45,29,30.45,30.09,10,2,10,0.00
2013-11-8,60.8,43.5,29.8,30.6,21.7,16.9,62,44,25,30.12,29.91,13,3,17,0.00
2013-11-9,53.2,41.9,33.1,29.7,24.2,19.2,63,50,38,30.30,30.12,8,2,8,0.00
2013-11-10,61.0,43.6,32.4,33.6,24.9,20.1,69,50,27,30.30,30.21,11,2,12,0.00
2013-11-11,53.1,37.6,31.6,31.8,23.2,18.5,66,56,40,30.65,30.21,17,4,17,0.00
2013-11-12,50.9,37.3,30.2,34.3,26.1,20.5,77,65,47,30.65,30.39,9,2,10,0.00
2013-11-13,61.5,43.2,26.2,33.3,22.6,16.9,72,48,24,30.42,30.09,8,2,8,0.00
2013-11-14,55.4,47.7,38.3,32.0,26.5,21.0,59,44,28,30.21,29.88,23,6,24,0.00
2013-11-15,60.6,43.5,32.0,33.1,24.6,18.1,73,51,22,29.88,29.62,20,4,24,0.00
2013-11-16,55.6,41.8,31.1,26.8,20.3,16.3,62,44,26,29.74,29.50,31,6,32,0.00
2013-11-17,54.5,41.9,32.0,25.5,15.3,8.8,70,36,20,30.15,29.68,27,7,30,0.00
2013-11-18,55.4,38.4,24.3,26.2,16.4,6.8,52,41,27,30.24,30.09,15,3,16,0.00
2013-11-19,44.8,36.4,25.9,26.6,19.6,12.4,61,50,42,30.09,29.86,10,2,10,0.00
2013-11-20,56.1,41.9,28.9,29.7,22.5,13.1,64,47,29,30.12,29.88,27,4,29,0.00
2013-11-21,28.9,21.1,17.1,12.6,8.1,5.5,63,57,47,30.56,30.12,16,4,17,0.00
2013-11-22,35.2,25.9,17.1,19.4,12.3,6.1,66,56,45,30.59,30.48,11,2,11,0.00
2013-11-23,36.7,30.0,25.5,20.3,15.6,12.2,61,54,50,30.59,30.30,13,3,15,0.00
2013-11-24,41.2,29.0,22.1,20.8,16.4,12.2,68,59,31,30.30,30.03,19,3,19,0.00
2013-11-25,43.0,37.6,29.7,22.3,18.2,11.7,65,46,30,30.36,30.09,24,4,24,0.04
2013-11-26,51.1,34.8,26.4,27.5,19.3,13.6,70,54,27,30.39,30.30,18,3,24,0.00
2013-11-27,56.3,36.2,22.1,28.2,20.4,11.3,68,54,29,30.30,30.09,11,2,11,0.00
2013-11-28,43.2,33.0,25.3,25.3,19.5,14.9,69,58,43,30.27,30.15,6,1,6,0.00
2013-11-29,55.8,36.9,25.5,30.7,20.6,15.6,74,54,29,30.21,30.09,11,2,11,0.00
2013-11-30,52.0,35.8,25.0,25.7,17.8,12.7,64,49,31,30.24,30.15,7,2,7,0.00
2013-12-1,52.5,39.7,26.8,26.6,19.6,13.6,68,46,29,30.21,29.91,27,4,27,0.00
2013-12-2,59.7,51.7,44.1,24.6,19.9,16.3,37,28,24,29.94,29.71,30,8,31,0.00
2013-12-3,50.4,32.0,11.7,23.5,11.8,0.7,61,45,27,29.91,29.62,22,6,24,0.00
2013-12-4,18.5,10.0,2.1,4.6,-4.2,-13.9,61,52,44,30.15,29.86,23,5,23,0.00
2013-12-5,12.0,4.0,-5.8,-4.7,-12.2,-21.3,46,46,46,30.18,30.03,12,3,15,0.00
2013-12-6,11.1,3.0,-4.5,-5.6,-13.0,-20.0,46,46,46,30.24,30.15,9,2,10,0.00
2013-12-7,14.2,4.3,-6.5,-1.7,-11.6,-21.8,49,47,46,30.21,29.86,9,3,9,0.00
2013-12-8,17.1,9.8,4.1,2.1,-5.4,-9.9,54,49,47,30.09,29.77,11,3,11,0.00
2013-12-9,15.4,7.3,-0.4,-0.9,-8.0,-14.3,51,49,45,30.12,30.03,12,3,13,0.00
2013-12-10,34.9,18.3,3.2,15.6,1.2,-12.8,56,46,40,30.30,29.97,22,4,22,0.00
2013-12-11,27.5,18.0,9.7,13.1,5.4,-2.6,61,57,52,30.36,30.27,13,2,19,0.00
2013-12-12,38.8,21.6,8.2,19.4,7.8,-2.7,66,55,41,30.33,30.03,7,2,7,0.04
2013-12-13,42.3,28.5,13.6,19.8,11.7,2.3,61,50,39,30.21,29.91,15,3,15,0.00
2013-12-14,41.4,29.5,19.0,18.5,13.2,6.3,59,51,39,30.30,30.18,13,3,15,0.00
2013-12-15,45.5,30.6,20.1,23.2,15.7,8.4,64,54,39,30.21,30.09,12,2,15,0.00
2013-12-16,55.9,44.1,30.7,21.6,15.7,10.0,43,32,25,30.30,30.09,17,4,17,0.00
2013-12-17,51.3,35.7,26.6,22.1,16.6,10.2,56,46,30,30.36,30.12,10,3,10,0.00
2013-12-18,47.5,36.4,27.9,26.8,19.2,14.7,59,50,40,30.12,29.83,8,2,9,0.00
2013-12-19,42.4,31.6,19.8,21.4,15.2,6.4,56,51,41,30.00,29.71,24,4,26,0.00
2013-12-20,28.4,22.4,18.1,15.8,11.9,6.4,69,64,56,29.97,29.77,13,3,14,0.00
2013-12-21,34.9,26.5,18.1,24.6,16.3,9.9,76,66,47,29.94,29.68,9,2,9,0.00
2013-12-22,35.4,28.0,21.2,20.5,15.3,8.2,76,60,40,30.24,29.94,15,4,21,0.00
2013-12-23,30.2,23.5,19.2,18.9,13.7,9.5,73,66,55,30.30,30.12,7,2,8,0.00
2013-12-24,48.7,29.0,19.6,32.2,14.8,6.1,79,57,28,30.30,30.00,38,6,38,0.00
2013-12-25,39.2,26.3,17.4,18.0,10.8,5.9,63,52,33,30.39,30.21,11,3,12,0.00
2013-12-26,48.4,31.8,19.0,21.7,12.8,6.3,60,47,28,30.30,30.15,14,3,14,0.00
2013-12-27,50.9,32.5,21.9,24.4,15.2,8.6,62,50,32,30.33,30.09,9,2,10,0.00
2013-12-28,48.4,31.8,22.6,27.5,15.9,9.0,69,53,29,30.24,29.91,25,6,28,0.00
2013-12-29,34.7,24.9,14.2,18.1,10.6,3.2,66,54,41,30.27,29.94,15,3,15,0.00
2013-12-30,45.3,31.9,20.8,16.5,10.7,7.3,58,42,28,30.21,30.00,16,4,22,0.00
2013-12-31,51.6,36.2,23.0,24.1,15.5,7.9,58,44,27,30.12,29.97,13,3,13,0.00
2014-1-1,38.5,32.6,22.8,28.8,20.0,13.1,75,60,44,30.30,29.97,30,4,30,0.00
2014-1-2,39.2,26.5,16.9,22.6,13.9,7.2,73,59,43,30.27,30.03,9,2,10,0.00